| time (UTC) | temp F | wind direction | speed MPH | gust MPH | rain 1hr in | rain 24hr in | rain mn in | humidity % | barometer mb |
| 20260901003055 | 68 | 84 | 0.0 | 0.0 | 0.00 | 0.00 | 0.94 | 98 | 1015.3 |
| 20260901001545 | 68 | 84 | 0.0 | 0.0 | 0.00 | 0.93 | 0.93 | 98 | 1015.3 |
| 20260901000045 | 68 | 84 | 0.0 | 0.0 | 0.00 | 0.93 | 0.93 | 98 | 1015.5 |
| 20260831234543 | 68 | 84 | 0.0 | 0.0 | 0.00 | 0.93 | 0.93 | 98 | 1015.4 |
| 20260831233043 | 68 | 84 | 0.0 | 0.0 | 0.00 | 0.93 | 0.93 | 98 | 1015.4 |
| 20260831231544 | 68 | 84 | 0.0 | 0.0 | 0.00 | 0.93 | 0.93 | 98 | 1015.5 |
| 20260831230041 | 68 | 84 | 0.0 | 0.0 | 0.01 | 0.93 | 0.93 | 98 | 1015.5 |
| 20260831224540 | 68 | 84 | 0.0 | 0.0 | 0.01 | 0.93 | 0.93 | 98 | 1015.6 |
| 20260831223042 | 68 | 75 | 0.0 | 0.0 | 0.01 | 0.93 | 0.93 | 98 | 1015.7 |
| 20260831221542 | 68 | 75 | 0.0 | 0.0 | 0.01 | 0.93 | 0.93 | 98 | 1015.6 |
| 20260831220038 | 68 | 75 | 0.0 | 0.0 | 0.00 | 0.92 | 0.92 | 98 | 1015.6 |
| 20260831214542 | 68 | 75 | 0.0 | 0.0 | 0.00 | 0.92 | 0.92 | 98 | 1015.7 |
| 20260831213042 | 68 | 75 | 0.0 | 0.0 | 0.01 | 0.92 | 0.92 | 98 | 1015.7 |
| 20260831211535 | 68 | 75 | 0.0 | 0.0 | 0.04 | 0.92 | 0.92 | 98 | 1015.8 |
| 20260831210037 | 68 | 75 | 0.0 | 0.0 | 0.06 | 0.92 | 0.92 | 98 | 1015.8 |
| 20260831204536 | 68 | 75 | 0.0 | 0.0 | 0.07 | 0.92 | 0.92 | 98 | 1015.8 |
| 20260831203052 | 68 | 170 | 0.0 | 0.0 | 0.08 | 0.91 | 0.91 | 98 | 1015.9 |
| 20260831201531 | 68 | 170 | 0.0 | 0.0 | 0.07 | 0.88 | 0.88 | 98 | 1016.1 |
| 20260831200037 | 68 | 170 | 0.0 | 0.0 | 0.12 | 0.86 | 0.86 | 98 | 1016.2 |
| 20260831194528 | 68 | 170 | 0.0 | 0.0 | 0.15 | 0.85 | 0.85 | 98 | 1016.4 |
| 20260831193027 | 68 | 170 | 0.0 | 0.0 | 0.14 | 0.83 | 0.83 | 97 | 1016.6 |
| 20260831191524 | 68 | 178 | 0.0 | 0.0 | 0.22 | 0.80 | 0.80 | 97 | 1016.9 |
| 20260831190029 | 68 | 180 | 0.0 | 0.0 | 0.25 | 0.74 | 0.74 | 98 | 1016.9 |
| 20260831184527 | 68 | 165 | 0.0 | 0.0 | 0.22 | 0.71 | 0.70 | 97 | 1016.9 |
| 20260831183026 | 68 | 165 | 0.0 | 0.0 | 0.25 | 0.70 | 0.69 | 97 | 1016.8 |
| 20260831181525 | 68 | 165 | 0.0 | 0.0 | 0.13 | 0.57 | 0.56 | 97 | 1017.2 |
| 20260831180021 | 68 | 127 | 0.0 | 0.0 | 0.05 | 0.50 | 0.49 | 97 | 1017.1 |
| 20260831174520 | 68 | 162 | 0.0 | 0.0 | 0.08 | 0.50 | 0.48 | 97 | 1017.2 |
| 20260831173018 | 69 | 161 | 0.0 | 0.0 | 0.04 | 0.46 | 0.44 | 97 | 1017.3 |
| 20260831171516 | 69 | 161 | 0.0 | 0.0 | 0.05 | 0.46 | 0.44 | 97 | 1017.4 |
| 20260831170026 | 68 | 159 | 0.0 | 0.0 | 0.05 | 0.46 | 0.44 | 97 | 1017.6 |
| 20260831164512 | 68 | 158 | 0.0 | 0.0 | 0.02 | 0.43 | 0.40 | 97 | 1017.6 |
| 20260831163011 | 68 | 159 | 0.0 | 0.0 | 0.04 | 0.43 | 0.40 | 97 | 1017.8 |
| 20260831161512 | 68 | 158 | 0.0 | 0.0 | 0.07 | 0.42 | 0.39 | 97 | 1018.0 |
| 20260831160013 | 68 | 165 | 0.0 | 0.0 | 0.08 | 0.42 | 0.39 | 97 | 1018.1 |
| 20260831154510 | 68 | 165 | 0.0 | 0.0 | 0.08 | 0.41 | 0.38 | 98 | 1018.2 |
| 20260831153133 | 67 | 165 | 0.0 | 0.0 | 0.07 | 0.39 | 0.36 | 98 | 1018.2 |
| 20260831151506 | 67 | 166 | 0.0 | 0.0 | 0.07 | 0.35 | 0.32 | 98 | 1018.4 |
| 20260831150004 | 67 | 166 | 0.0 | 0.0 | 0.09 | 0.34 | 0.31 | 97 | 1018.2 |
| 20260831144503 | 67 | 166 | 0.0 | 0.0 | 0.10 | 0.33 | 0.30 | 97 | 1018.1 |
| 20260831143001 | 66 | 165 | 0.0 | 0.0 | 0.18 | 0.32 | 0.28 | 98 | 1018.2 |
| 20260831141600 | 66 | 166 | 0.0 | 0.0 | 0.17 | 0.28 | 0.25 | 97 | 1018.0 |
| 20260831140100 | 66 | 166 | 0.0 | 0.0 | 0.17 | 0.25 | 0.22 | 97 | 1017.7 |
| 20260831134605 | 66 | 166 | 0.0 | 0.0 | 0.19 | 0.23 | 0.20 | 97 | 1017.8 |
| 20260831133057 | 66 | 165 | 0.0 | 0.0 | 0.11 | 0.14 | 0.11 | 97 | 1017.9 |
| 20260831131555 | 66 | 166 | 0.0 | 0.0 | 0.08 | 0.11 | 0.08 | 97 | 1018.2 |
| 20260831130105 | 66 | 166 | 0.0 | 0.0 | 0.05 | 0.08 | 0.05 | 97 | 1018.2 |
| 20260831124559 | 66 | 166 | 0.0 | 0.0 | 0.01 | 0.04 | 0.01 | 97 | 1018.1 |
| 20260831123055 | 66 | 166 | 0.0 | 0.0 | 0.00 | 0.03 | 0.00 | 97 | 1018.2 |
| 20260831121551 | 66 | 166 | 0.0 | 0.0 | 0.00 | 0.03 | 0.00 | 97 | 1018.1 |
| 20260831120139 | 65 | 166 | 0.0 | 0.0 | 0.00 | 0.03 | 0.00 | 97 | 1018.4 |
| 20260831114546 | 65 | 166 | 0.0 | 0.0 | 0.00 | 0.03 | 0.00 | 97 | 1018.4 |
| 20260831113046 | 64 | 166 | 0.0 | 0.0 | 0.00 | 0.03 | 0.00 | 97 | 1018.4 |
| 20260831111551 | 64 | 166 | 0.0 | 0.0 | 0.00 | 0.03 | 0.00 | 97 | 1018.4 |
| 20260831110043 | 64 | 166 | 0.0 | 0.0 | 0.00 | 0.03 | 0.00 | 97 | 1018.2 |
| 20260831104542 | 64 | 166 | 0.0 | 0.0 | 0.00 | 0.03 | 0.00 | 97 | 1018.4 |
| 20260831103045 | 64 | 166 | 0.0 | 0.0 | 0.00 | 0.03 | 0.00 | 97 | 1018.3 |
| 20260831101540 | 63 | 166 | 0.0 | 0.0 | 0.00 | 0.03 | 0.00 | 97 | 1018.1 |
| 20260831100044 | 63 | 166 | 0.0 | 0.0 | 0.00 | 0.03 | 0.00 | 97 | 1018.3 |
| 20260831094537 | 63 | 166 | 0.0 | 0.0 | 0.00 | 0.03 | 0.00 | 97 | 1018.3 |
| 20260831093038 | 63 | 166 | 0.0 | 0.0 | 0.00 | 0.03 | 0.00 | 97 | 1018.4 |
| 20260831091535 | 63 | 166 | 0.0 | 0.0 | 0.00 | 0.03 | 0.00 | 97 | 1018.4 |
| 20260831090034 | 63 | 166 | 0.0 | 0.0 | 0.00 | 0.03 | 0.00 | 97 | 1018.4 |
| 20260831084537 | 62 | 166 | 0.0 | 0.0 | 0.00 | 0.03 | 0.00 | 97 | 1018.5 |
| 20260831083030 | 62 | 166 | 0.0 | 0.0 | 0.00 | 0.03 | 0.00 | 97 | 1018.6 |
| 20260831081541 | 62 | 166 | 0.0 | 0.0 | 0.00 | 0.03 | 0.00 | 97 | 1018.7 |
| 20260831080029 | 62 | 166 | 0.0 | 0.0 | 0.00 | 0.03 | 0.00 | 97 | 1018.6 |
| 20260831074531 | 62 | 166 | 0.0 | 0.0 | 0.00 | 0.03 | 0.00 | 97 | 1018.6 |
| 20260831073029 | 62 | 166 | 0.0 | 0.0 | 0.00 | 0.03 | 0.00 | 97 | 1018.6 |
| 20260831071532 | 62 | 166 | 0.0 | 0.0 | 0.00 | 0.03 | 0.00 | 96 | 1018.7 |
| 20260831070033 | 62 | 166 | 0.0 | 0.0 | 0.00 | 0.03 | 0.00 | 96 | 1018.7 |
| 20260831064528 | 62 | 166 | 0.0 | 0.0 | 0.00 | 0.03 | 0.00 | 96 | 1018.6 |
| 20260831063026 | 62 | 166 | 0.0 | 0.0 | 0.00 | 0.03 | 0.00 | 96 | 1018.8 |
| 20260831061525 | 62 | 166 | 0.0 | 0.0 | 0.00 | 0.03 | 0.00 | 96 | 1018.6 |
| 20260831060024 | 62 | 166 | 0.0 | 0.0 | 0.00 | 0.03 | 0.00 | 96 | 1018.8 |
| 20260831054522 | 62 | 166 | 0.0 | 0.0 | 0.00 | 0.03 | 0.00 | 96 | 1018.7 |
| 20260831053022 | 62 | 166 | 0.0 | 0.0 | 0.00 | 0.03 | 0.00 | 96 | 1018.8 |
| 20260831051533 | 62 | 166 | 0.0 | 0.0 | 0.00 | 0.03 | 0.00 | 96 | 1018.9 |
| 20260831050019 | 62 | 166 | 0.0 | 0.0 | 0.00 | 0.03 | 0.00 | 96 | 1019.0 |
| 20260831044517 | 62 | 166 | 0.0 | 0.0 | 0.00 | 0.03 | 0.00 | 96 | 1019.2 |
| 20260831043016 | 61 | 166 | 0.0 | 0.0 | 0.00 | 0.03 | 0.00 | 96 | 1019.3 |
| 20260831041522 | 61 | 166 | 0.0 | 0.0 | 0.00 | 0.03 | 0.00 | 96 | 1019.2 |
| 20260831040034 | 62 | 166 | 0.0 | 0.0 | 0.00 | 0.03 | 0.00 | 96 | 1019.1 |
| 20260831034510 | 62 | 166 | 0.0 | 0.0 | 0.00 | 0.03 | 0.03 | 95 | 1019.2 |
| 20260831033012 | 62 | 166 | 0.0 | 0.0 | 0.00 | 0.03 | 0.03 | 95 | 1019.2 |
| 20260831031508 | 62 | 166 | 0.0 | 0.0 | 0.00 | 0.03 | 0.03 | 95 | 1019.1 |
| 20260831030010 | 62 | 166 | 0.0 | 0.0 | 0.00 | 0.03 | 0.03 | 95 | 1019.1 |
| 20260831024506 | 63 | 166 | 0.0 | 0.0 | 0.00 | 0.03 | 0.03 | 95 | 1019.1 |
| 20260831023006 | 63 | 166 | 0.0 | 0.0 | 0.00 | 0.03 | 0.03 | 94 | 1019.1 |
| 20260831021517 | 63 | 166 | 0.0 | 0.0 | 0.00 | 0.03 | 0.03 | 94 | 1019.2 |
| 20260831020003 | 63 | 165 | 0.0 | 0.0 | 0.00 | 0.03 | 0.03 | 94 | 1019.2 |
| 20260831014502 | 63 | 166 | 0.0 | 0.0 | 0.00 | 0.03 | 0.03 | 94 | 1019.4 |
| 20260831013002 | 63 | 166 | 0.0 | 0.0 | 0.00 | 0.03 | 0.03 | 93 | 1019.4 |
| 20260831011504 | 63 | 166 | 0.0 | 0.0 | 0.00 | 0.03 | 0.03 | 93 | 1019.2 |
| 20260831010131 | 64 | 166 | 0.0 | 0.0 | 0.00 | 0.03 | 0.03 | 92 | 1019.1 |
| 20260831004558 | 64 | 166 | 0.0 | 0.0 | 0.00 | 0.03 | 0.03 | 91 | 1018.9 |